Regional Weather Roundup
Issued by NWS Upton, NY

Current Version | Previous Version | Text Only | Print | Product List | Glossary On
Versions: 1 2 3 4 5 6 7 8 9 10 11 12 13 14 15 16 17 18 19 20 21 22 23 24 25 26 27
000 ASUS41 KOKX 282209 RWROKX REGIONAL WEATHER ROUNDUP NATIONAL WEATHER SERVICE NEW YORK NY 600 PM EDT FRI APR 28 2017 NOTE: "FAIR" INDICATES FEW OR NO CLOUDS BELOW 12,000 FEET WITH NO SIGNIFICANT WEATHER AND/OR OBSTRUCTIONS TO VISIBILITY. NYZ071-072-176-178-NJZ106-104-282300- NEW YORK CITY METRO AREA CITY SKY/WX TMP DP RH WIND PRES REMARKS Central Park CLOUDY 80 55 42 MISG 30.00S Wall St Helipt CLOUDY 83 42 23 W8G41 29.98S Bronx Bot Gard N/A 77 55 47 SE7 29.98F LaGuardia APRT MOSUNNY 80 55 42 S12G24 29.97R Kennedy INTL CLOUDY 72 58 61 S20 29.99S Breezy Point N/A 63 N/A N/A S13 N/A Newark/Liberty PTSUNNY 84 41 21 SW17G24 29.97S Teterboro CLOUDY 83 34 17 W13 29.95S $$ NYZ177-179-078>081-282300- LONG ISLAND NEW YORK CITY SKY/WX TMP DP RH WIND PRES REMARKS Jones Beach N/A 63 N/A N/A S12G17 N/A Matinecock PT N/A 79 N/A N/A S8G20 N/A Farmingdale SUNNY 74 59 59 SW14 30.00S MacArthur/ISP PTSUNNY 74 58 57 S9 29.99S Shirley NOT AVBL Mt Sinai Harb N/A 75 N/A N/A S6G12 N/A Westhampton SUNNY 68 58 70 SW7 30.02R East Hampton N/A 63 57 83 SW8 30.00S Montauk N/A 65 57 75 S7 30.00F $$ NYZ052-065-067-282300- HUDSON VALLEY CITY SKY/WX TMP DP RH WIND PRES REMARKS White Plains SUNNY 77 53 43 S10G21 29.97R Larchmont Harb N/A 70 N/A N/A S21 N/A Croton O-T Hud N/A 81 N/A N/A SW7G13 N/A Newburgh MOSUNNY 82 45 26 SW12G18 29.97R Montgomery SUNNY 83 41 22 SW16G24 29.93S Poughkeepsie SUNNY 83 43 24 SW7 29.93R Albany PTSUNNY 77 50 38 N8 29.96S $$ NJZ001-105-106-008-010-013-015-019>022-104-282300- NEW JERSEY CITY SKY/WX TMP DP RH WIND PRES REMARKS Newark/Liberty PTSUNNY 84 41 21 SW17G24 29.97S Teterboro CLOUDY 83 34 17 W13 29.95S Caldwell CLOUDY 84 36 18 SW8 29.97S Somerville SUNNY 83 39 21 VRB3 29.96S Linden N/A 83 39 20 W10G18 29.98R Perth Amboy N/A 82 N/A N/A W12 N/A Sussex SUNNY 80 45 28 S9 29.98R Andover N/A 80 40 23 SW8 29.98S Trenton SUNNY 81 42 25 W6 29.99S Millville SUNNY 80 59 48 VRB6 30.02S Atlantic City SUNNY 84 52 33 W7 30.01S Wrightstown SUNNY 82 52 35 W7 29.98R Toms River SUNNY 84 52 33 W10 30.00S Belmar SUNNY 84 44 24 SW7 30.00S $$ PAZ047>061-062-071-282300- EASTERN PENNSYLVANIA CITY SKY/WX TMP DP RH WIND PRES REMARKS Philadelphia NOT AVBL Allentown SUNNY 79 47 32 SW10 30.00R Scranton CLOUDY 77 41 27 SW10 30.00F $$ CTZ002-004>006-009-010-012-RIZ004-006-007-MAZ004-011-015-282300- SOUTHERN NEW ENGLAND IN CT CITY SKY/WX TMP DP RH WIND PRES REMARKS Bradley INTL MOSUNNY 84 47 27 SW10 29.93S Hartford SUNNY 81 60 48 S8 29.94R Danbury SUNNY 78 52 40 S7 29.97S Wtrbury/Oxford MOSUNNY 79 54 41 SW14G20 29.99R Bridgeport SUNNY 66 57 72 E6 29.97S Meriden SUNNY 80 57 45 S13 29.96R New Haven MOSUNNY 71 60 68 S7 29.97S Chester N/A 77 59 53 SW8 29.99R Groton SUNNY 63 57 81 S5 29.98R Wilimantic SUNNY 82 56 40 S12 29.96R IN RI CITY SKY/WX TMP DP RH WIND PRES REMARKS Providence MOSUNNY 80 61 52 SW16 29.95R Block Island SUNNY 60 55 83 SW13 30.01R Westerly SUNNY 69 60 73 S8 30.00R IN MA CITY SKY/WX TMP DP RH WIND PRES REMARKS Boston PTSUNNY 81 54 39 W13G22 29.91S Worcester SUNNY 77 49 37 W14G20 29.98R Westfield MOSUNNY 83 45 26 W10G22 29.93S Provincetown SUNNY 63 57 81 SW17 29.94S Nantucket PTSUNNY 53 49 86 SW10 30.01R FOG $$ ANZ330-335-338-340-345-350-353-355-282300- COASTAL MARINE OBSERVATIONS STATION/POSITION TIME SKY/WX TEMP WIND PRES VSBY WAVE AIR SEA DIR/SP/G HT/PER (UTC) (F) (DEG/KT/KT) (MB) (MI) (FT/S) NY HARB ENTRANCE 2050 57 51 180/ 8/ 10 1016.1 4/ 8 20 S FIRE ISLAND 2150 54 50 190/ 6/ 8 1016.0 5/ 8 GREAT SOUTH BAY 2130 61 60 250/ 6/ 8 N/A 23 SSW MONTAUK P 2050 52 49 1016.5 5/ 8 15 E BARNEGAT LI 2130 53 N/A 4/ 9 HUDSON CANYON 2050 51 49 210/ 10/ 12 1017.3 5/ 8 KINGS POINT 2130 72 54 190/ 15/ 17 1014.7 EXECUTION ROCKS NOT AVBL CENTRAL LI SOUND 2145 61 150/ 6/ 6 N/A 0 EASTERN LI SOUND NOT AVBL ROBBINS REEF 2130 83 260/ 15/ 18 1014.9 $$ >>>>>>>>>>>>>>>>>>>>>>>>>>>> KEY <<<<<<<<<<<<<<<<<<<<<<<<<<< > < > SKY/WX - Sky Condition/Present Weather < > TMP - Temperature in Fahrenheit < > DP - Dew Point in Fahrenheit < > RH - Relative Humidity in Percent < > WIND - Direction (from) and Speed in MPH < > PRES - Mean Sea Level Pressure (inches of Hg) < > WCI - Wind Chill Index < > VSB - VISIBILITY IN MILES < > HX - HEAT INDEX < > TC - TEMPERATURE IN CELSIUS < > VRB - VARIABLE WIND DIRECTION < > < >>>>>>>>>>>>>>>>>>>>>>>>>>>> KEY <<<<<<<<<<<<<<<<<<<<<<<<<<<

USA.gov is the U.S. government's official web portal to all federal, state and local government web resources and services.